Regional Weather Roundup
Issued by NWS Little Rock, AR

Home | Current Version | Previous Version | Graphics & Text | Print | Product List | Glossary On
Versions: 1 2 3 4 5 6 7 8 9 10 11 12 13 14 15 16 17 18 19 20 21 22 23 24 25 26 27 28 29 30 31
000
ASUS44 KLZK 140612
RWRLZK

WEATHER ROUNDUP FOR ARKANSAS
NATIONAL WEATHER SERVICE LITTLE ROCK AR
1200 AM CST THU DEC 14 2017

NOTE: "FAIR" INDICATES FEW OR NO CLOUDS BELOW 12,000 FEET WITH NO
SIGNIFICANT WEATHER AND/OR OBSTRUCTIONS TO VISIBILITY.

ARZ001-003-010-029-140700-
NORTHWEST ARKANSAS

CITY           SKY/WX    TMP DP  RH WIND       PRES   REMARKS
FAYETTEVILLE   PTCLDY    30  26  85 CALM      29.93R
6HR MIN TEMP:  28; 6HR MAX TEMP:  43;

FORT SMITH     CLEAR     37  28  70 SW7       29.92R
6HR MIN TEMP:  36; 6HR MAX TEMP:  49;

HARRISON       CLEAR     44  26  49 NW5       29.89R
6HR MIN TEMP:  44; 6HR MAX TEMP:  52;

BENTONVILLE    CLOUDY    45  27  49 N6        29.94R
6HR MIN TEMP:  40; 6HR MAX TEMP:  50;

ROGERS         CLEAR     44  26  49 N6        29.92S
6HR MIN TEMP:  44; 6HR MAX TEMP:  51;

SILOAM SPGS    CLOUDY    38  27  64 CALM      29.93S
6HR MIN TEMP:  36; 6HR MAX TEMP:  49;

HIGHFILL       PTCLDY    42  27  55 N8        29.92R
6HR MIN TEMP:  41; 6HR MAX TEMP:  47;

$$

ARZ004-005-016-140700-
NORTH CENTRAL ARKANSAS

CITY           SKY/WX    TMP DP  RH WIND       PRES   REMARKS
BATESVILLE     CLEAR     47  26  44 NW5       29.88R
6HR MIN TEMP:  42; 6HR MAX TEMP:  52;

FLIPPIN        CLEAR     48  27  44 NW5       29.90R
6HR MIN TEMP:  47; 6HR MAX TEMP:  54;

MTN HOME       CLEAR     43  29  57 N3        29.87S
6HR MIN TEMP:  43; 6HR MAX TEMP:  54;

$$

ARZ040-041-140700-
WEST CENTRAL ARKANSAS

CITY           SKY/WX    TMP DP  RH WIND       PRES   REMARKS
MENA           CLEAR     34  32  93 CALM      29.91S
MOUNT IDA      CLOUDY    36  27  69 CALM      29.88S
6HR MIN TEMP:  36; 6HR MAX TEMP:  56;

$$

ARZ009-017-025-026-028-140700-
NORTHEAST ARKANSAS

CITY           SKY/WX    TMP DP  RH WIND       PRES   REMARKS
JONESBORO      CLEAR     46  29  51 W7        29.86R
6HR MIN TEMP:  45; 6HR MAX TEMP:  52;

NEWPORT        CLEAR     44  27  51 W9        29.88R
6HR MIN TEMP:  43; 6HR MAX TEMP:  51;

WALNUT RIDGE   CLEAR     43  26  51 NW8       29.86R
6HR MIN TEMP:  41; 6HR MAX TEMP:  52;

BLYTHEVILLE    PTCLDY    40  29  64 W8        29.84R
6HR MIN TEMP:  39; 6HR MAX TEMP:  48;

$$

ARZ022-023-033-042-044-140700-
CENTRAL ARKANSAS

CITY           SKY/WX    TMP DP  RH WIND       PRES   REMARKS
LITTLE ROCK    CLEAR     44  29  55 W5        29.89S
6HR MIN TEMP:  43; 6HR MAX TEMP:  57;

N LITTLE ROCK    N/A     52  29  41 NW5       29.91F
6HR MIN TEMP:  48; 6HR MAX TEMP:  58;

JACKSONVILLE   CLEAR     38  27  65 W5        29.89R
6HR MIN TEMP:  38; 6HR MAX TEMP:  54;

SEARCY         CLEAR     41  29  62 NW3       29.89R
6HR MIN TEMP:  40; 6HR MAX TEMP:  55;

HOT SPRINGS    CLEAR     39  33  79 CALM      29.90S
6HR MIN TEMP:  38; 6HR MAX TEMP:  59;

RUSSELLVILLE   CLEAR     34  28  79 CALM      29.90R
6HR MIN TEMP:  34; 6HR MAX TEMP:  46;

CLINTON        FAIR      28  27  93 CALM      29.91R
$$

ARZ036-140700-
EAST ARKANSAS

CITY           SKY/WX    TMP DP  RH WIND       PRES   REMARKS
WEST MEMPHIS   CLEAR     44  30  57 VRB3      29.85R
6HR MIN TEMP:  42; 6HR MAX TEMP:  53;

$$

ARZ050-053-066-070-073-140700-
SOUTHWEST ARKANSAS

CITY           SKY/WX    TMP DP  RH WIND       PRES   REMARKS
ARKADELPHIA    FAIR      33  28  81 CALM      29.91S
6HR MIN TEMP:  32; 6HR MAX TEMP:  50;

CAMDEN         CLOUDY    39  28  65 CALM      29.91S
TEXARKANA      CLEAR     44  31  60 SW6       29.91S
6HR MIN TEMP:  44; 6HR MAX TEMP:  57;

EL DORADO      CLEAR     43  34  70 SW5       29.92F
6HR MIN TEMP:  43; 6HR MAX TEMP:  54;

DE QUEEN       CLEAR     32  31  96 CALM      29.89F
6HR MIN TEMP:  31; 6HR MAX TEMP:  51;

$$

ARZ056-057-069-140700-
SOUTHEAST ARKANSAS

CITY           SKY/WX    TMP DP  RH WIND       PRES   REMARKS
PINE BLUFF     CLEAR     46  27  47 W5        29.90S
6HR MIN TEMP:  44; 6HR MAX TEMP:  54;

STUTTGART      CLEAR     41  30  65 W7        29.89S
6HR MIN TEMP:  40; 6HR MAX TEMP:  50;

MONTICELLO     CLEAR     46  30  53 W6        29.92R
6HR MIN TEMP:  46; 6HR MAX TEMP:  56;


$$






USA.gov is the U.S. government's official web portal to all federal, state and local government web resources and services.